SXM-7

Last updated on Sat Aug 15 2026 00:03:02 GMT+0000 (Coordinated Universal Time)

1 47240U 20096A 26226.55106933 -.00000220 00000+0 00000+0 0 9997 2 47240 0.0177 110.6864 0003648 357.9923 327.5108 1.00272220 8021
UTC large
Height (km)
Speed (km/s)
/
Latitude / Longitude
Inclination (degrees)
Orbital Period (minutes)
Azimuth
Elevation
Range (km)
Doppler Factor

Next 0 passes for location: London (51.5072 / 0.1276)

No passes found over London.
SXM-7